                ,  0.721,  0.869,  1.017,  1.165,  1.312,  1.460,  1.608,  1.756,  1.904,  2.052,  2.199,  2.347,  2.495,  2.643,  2.791,  2.938,  3.086,  3.234,  3.382,  3.530,  3.677,  3.825,  3.973,  4.121,  4.269,  4.417,  4.564,  4.712,  4.860,  5.008,  5.156,  5.303
1999/08/18 00:00,  999.0,  999.0,  999.0,  999.0,  999.0,  999.0,  999.0,  999.0,  999.0,  999.0,  999.0,  999.0,  999.0,  999.0,  999.0,  999.0,  999.0,  999.0,  999.0,  999.0,  999.0,  999.0,  999.0,  999.0,  999.0,  999.0,  999.0,  999.0,  999.0,  999.0,  999.0,  999.0
1999/08/18 00:10,  999.0,    5.2,    4.3,  999.0,  999.0,  999.0,  999.0,  999.0,  999.0,    8.5,  999.0,  999.0,  999.0,  999.0,   12.3,   12.6,  999.0,  999.0,  999.0,  999.0,  999.0,  999.0,  999.0,  999.0,  999.0,  999.0,  999.0,  999.0,  999.0,  999.0,  999.0,  999.0
1999/08/18 00:20,  999.0,    4.0,    4.2,    5.1,    5.5,    5.7,  999.0,  999.0,  999.0,  999.0,  999.0,  999.0,  999.0,  999.0,  999.0,   12.4,  999.0,  999.0,  999.0,  999.0,  999.0,  999.0,  999.0,  999.0,  999.0,  999.0,  999.0,  999.0,  999.0,  999.0,  999.0,  999.0
1999/08/18 00:30,  999.0,    5.0,    4.3,    4.2,    5.3,  999.0,    5.9,    5.7,  999.0,  999.0,  999.0,  999.0,  999.0,  999.0,  999.0,   12.2,  999.0,  999.0,  999.0,  999.0,  999.0,  999.0,  999.0,  999.0,  999.0,  999.0,  999.0,  999.0,  999.0,  999.0,  999.0,  999.0
1999/08/18 00:40,   -2.3,    3.6,    4.1,    3.6,    4.5,  999.0,  999.0,  999.0,    6.9,    9.0,  999.0,  999.0,  999.0,  999.0,  999.0,  999.0,   12.4,  999.0,  999.0,  999.0,  999.0,  999.0,  999.0,  999.0,  999.0,  999.0,  999.0,  999.0,  999.0,  999.0,  999.0,  999.0
1999/08/18 00:50,  999.0,    5.0,  999.0,    3.7,  999.0,  999.0,  999.0,    6.1,  999.0,  999.0,  999.0,   10.2,   11.0,  999.0,  999.0,   11.8,  999.0,  999.0,  999.0,  999.0,  999.0,  999.0,  999.0,  999.0,  999.0,  999.0,  999.0,  999.0,  999.0,  999.0,  999.0,  999.0
1999/08/18 01:00,  999.0,    3.9,    3.6,  999.0,  999.0,    4.9,  999.0,  999.0,    7.3,  999.0,    9.0,    9.6,   10.6,  999.0,   11.3,  999.0,  999.0,  999.0,  999.0,  999.0,  999.0,  999.0,  999.0,  999.0,  999.0,  999.0,  999.0,  999.0,  999.0,  999.0,  999.0,  999.0
1999/08/18 01:10,  999.0,  999.0,  999.0,  999.0,  999.0,    5.4,    5.0,  999.0,    7.9,    8.0,    9.5,  999.0,  999.0,  999.0,  999.0,  999.0,  999.0,  999.0,  999.0,  999.0,  999.0,  999.0,  999.0,  999.0,  999.0,  999.0,  999.0,  999.0,  999.0,  999.0,  999.0,  999.0
1999/08/18 01:20,  999.0,  999.0,  999.0,  999.0,    4.2,    4.7,    4.7,  999.0,    6.7,    8.6,  999.0,  999.0,  999.0,  999.0,  999.0,  999.0,  999.0,  999.0,  999.0,  999.0,  999.0,  999.0,  999.0,  999.0,  999.0,  999.0,  999.0,  999.0,  999.0,  999.0,  999.0,  999.0
1999/08/18 01:30,  999.0,  999.0,    4.3,  999.0,    3.3,    4.7,  999.0,    4.5,    6.3,    8.1,    9.9,  999.0,  999.0,   11.8,  999.0,   10.6,  999.0,  999.0,  999.0,  999.0,  999.0,  999.0,  999.0,  999.0,  999.0,  999.0,  999.0,  999.0,  999.0,  999.0,  999.0,  999.0
1999/08/18 01:40,  999.0,  999.0,  999.0,    2.8,    3.8,  999.0,    4.2,    4.4,    6.8,    8.3,   10.3,  999.0,  999.0,  999.0,  999.0,  999.0,  999.0,  999.0,  999.0,  999.0,  999.0,  999.0,  999.0,  999.0,  999.0,  999.0,  999.0,  999.0,  999.0,  999.0,  999.0,  999.0
1999/08/18 01:50,  999.0,  999.0,  999.0,  999.0,  999.0,    3.2,    4.5,    4.8,    6.0,    7.1,    9.2,  999.0,  999.0,  999.0,  999.0,  999.0,  999.0,  999.0,  999.0,  999.0,  999.0,  999.0,  999.0,  999.0,  999.0,  999.0,  999.0,  999.0,  999.0,  999.0,  999.0,  999.0
1999/08/18 02:00,  999.0,    5.2,    5.0,  999.0,    3.0,    2.7,    4.1,    5.9,    6.6,    7.0,    8.3,    9.8,  999.0,  999.0,  999.0,  999.0,  999.0,  999.0,  999.0,  999.0,  999.0,  999.0,  999.0,  999.0,  999.0,  999.0,  999.0,  999.0,  999.0,  999.0,  999.0,  999.0
1999/08/18 02:10,  999.0,    5.5,    4.7,    4.0,  999.0,    2.4,    3.9,    5.3,    6.2,    6.6,    7.3,    9.3,  999.0,  999.0,  999.0,  999.0,  999.0,  999.0,   12.0,  999.0,  999.0,  999.0,  999.0,  999.0,  999.0,  999.0,  999.0,  999.0,  999.0,  999.0,  999.0,  999.0
1999/08/18 02:20,  999.0,  999.0,  999.0,    5.4,    4.5,    2.7,  999.0,    5.3,    6.0,    7.0,  999.0,   11.0,  999.0,  999.0,  999.0,  999.0,   10.6,  999.0,  999.0,  999.0,  999.0,  999.0,  999.0,  999.0,  999.0,  999.0,  999.0,  999.0,  999.0,  999.0,  999.0,  999.0
1999/08/18 02:30,  999.0,  999.0,  999.0,    6.1,    6.2,    4.2,  999.0,    4.2,    5.1,    6.2,  999.0,    9.5,  999.0,  999.0,  999.0,  999.0,  999.0,  999.0,  999.0,  999.0,  999.0,  999.0,  999.0,  999.0,  999.0,  999.0,  999.0,  999.0,  999.0,  999.0,  999.0,  999.0
1999/08/18 02:40,    5.1,  999.0,    6.5,  999.0,    5.9,  999.0,  999.0,    3.9,    4.3,  999.0,    8.1,    9.1,  999.0,  999.0,  999.0,  999.0,  999.0,  999.0,  999.0,  999.0,  999.0,  999.0,  999.0,  999.0,  999.0,  999.0,  999.0,  999.0,  999.0,  999.0,  999.0,  999.0
1999/08/18 02:50,    5.9,    6.8,  999.0,  999.0,  999.0,    5.4,    3.7,  999.0,    3.8,  999.0,    7.3,  999.0,  999.0,   10.3,  999.0,  999.0,  999.0,  999.0,  999.0,  999.0,  999.0,  999.0,  999.0,  999.0,  999.0,  999.0,  999.0,  999.0,  999.0,  999.0,  999.0,  999.0
1999/08/18 03:00,    5.6,    7.1,    8.0,  999.0,    5.5,    6.7,    5.6,    4.2,    3.0,    4.8,    7.4,  999.0,  999.0,  999.0,  999.0,  999.0,  999.0,  999.0,  999.0,  999.0,  999.0,  999.0,  999.0,  999.0,  999.0,  999.0,  999.0,  999.0,  999.0,  999.0,  999.0,  999.0
1999/08/18 03:10,    5.8,  999.0,    8.0,    7.4,    8.0,    7.6,    6.3,    4.5,    4.3,    5.0,    7.1,  999.0,  999.0,    8.4,  999.0,  999.0,  999.0,  999.0,  999.0,  999.0,  999.0,  999.0,  999.0,  999.0,  999.0,  999.0,  999.0,  999.0,  999.0,  999.0,  999.0,  999.0
1999/08/18 03:20,    6.0,  999.0,    6.8,    7.0,  999.0,    7.3,    6.1,    5.6,    3.5,    6.1,  999.0,  999.0,  999.0,  999.0,  999.0,  999.0,  999.0,  999.0,  999.0,  999.0,  999.0,   13.4,   14.4,  999.0,  999.0,  999.0,  999.0,  999.0,  999.0,  999.0,  999.0,  999.0
1999/08/18 03:30,    7.0,    8.0,    7.7,    7.5,    7.9,    7.2,    6.3,    5.8,    6.4,  999.0,  999.0,  999.0,  999.0,  999.0,  999.0,  999.0,  999.0,  999.0,  999.0,  999.0,  999.0,  999.0,   13.7,   14.8,  999.0,  999.0,  999.0,  999.0,  999.0,  999.0,  999.0,  999.0
1999/08/18 03:40,    6.1,    7.4,    8.6,    9.3,    9.1,    8.5,    8.2,    7.9,    8.7,    8.5,    9.9,  999.0,  999.0,  999.0,  999.0,  999.0,  999.0,  999.0,  999.0,  999.0,  999.0,  999.0,  999.0,   13.7,  999.0,  999.0,  999.0,  999.0,  999.0,  999.0,  999.0,  999.0
1999/08/18 03:50,    7.6,    9.4,    9.8,   10.1,    9.6,    9.1,    8.4,    8.4,    8.8,    8.4,    8.1,    8.8,    9.1,  999.0,  999.0,  999.0,  999.0,  999.0,  999.0,  999.0,  999.0,   11.0,  999.0,   12.8,  999.0,  999.0,  999.0,  999.0,  999.0,  999.0,  999.0,  999.0
1999/08/18 04:00,    8.3,    8.9,    8.6,    8.5,    8.4,    9.1,    9.4,    8.1,    7.9,    8.3,    7.8,  999.0,  999.0,    9.1,  999.0,  999.0,  999.0,  999.0,  999.0,  999.0,  999.0,  999.0,  999.0,   12.6,  999.0,  999.0,  999.0,  999.0,  999.0,  999.0,  999.0,  999.0
1999/08/18 04:10,    8.1,    8.2,    8.9,    8.7,    9.1,   10.7,    9.8,    8.3,    7.5,    6.9,    6.4,  999.0,  999.0,  999.0,  999.0,  999.0,  999.0,  999.0,  999.0,  999.0,  999.0,  999.0,   11.6,  999.0,  999.0,  999.0,  999.0,  999.0,  999.0,  999.0,  999.0,  999.0
1999/08/18 04:20,    7.9,    8.1,    8.8,    9.3,   10.7,   10.0,    8.9,    8.3,  999.0,    6.3,    6.4,  999.0,  999.0,  999.0,    9.3,  999.0,  999.0,  999.0,  999.0,  999.0,  999.0,  999.0,  999.0,  999.0,  999.0,  999.0,  999.0,  999.0,  999.0,  999.0,  999.0,  999.0
1999/08/18 04:30,    8.0,    9.0,    9.4,   10.1,    9.4,    8.7,    7.5,    6.0,    6.5,    6.5,    6.3,  999.0,  999.0,  999.0,  999.0,  999.0,  999.0,  999.0,  999.0,  999.0,  999.0,  999.0,  999.0,  999.0,  999.0,  999.0,  999.0,  999.0,  999.0,  999.0,  999.0,  999.0
1999/08/18 04:40,    7.7,    7.8,    8.9,    9.5,    9.6,    9.6,    8.4,    6.5,    5.9,  999.0,  999.0,    7.5,  999.0,  999.0,  999.0,  999.0,  999.0,  999.0,  999.0,  999.0,  999.0,  999.0,  999.0,  999.0,  999.0,  999.0,  999.0,  999.0,  999.0,  999.0,  999.0,  999.0
1999/08/18 04:50,    7.0,    8.0,    7.7,    8.2,    9.2,    8.8,    8.0,    6.5,    5.6,    5.3,    5.5,    6.3,  999.0,  999.0,  999.0,  999.0,  999.0,  999.0,  999.0,  999.0,  999.0,  999.0,  999.0,  999.0,  999.0,  999.0,  999.0,  999.0,  999.0,  999.0,  999.0,  999.0
1999/08/18 05:00,    7.8,    7.3,    8.0,  999.0,    8.6,    9.3,    7.4,    5.9,    5.8,    5.4,    4.7,    6.3,  999.0,  999.0,  999.0,  999.0,  999.0,  999.0,  999.0,  999.0,  999.0,  999.0,  999.0,  999.0,  999.0,  999.0,  999.0,  999.0,  999.0,  999.0,  999.0,  999.0
1999/08/18 05:10,  999.0,   10.2,    8.2,    9.2,    9.3,    9.4,    8.0,    6.1,    5.3,    5.2,  999.0,    8.1,    8.9,  999.0,  999.0,  999.0,  999.0,  999.0,  999.0,  999.0,  999.0,  999.0,  999.0,  999.0,  999.0,  999.0,  999.0,  999.0,  999.0,  999.0,  999.0,  999.0
1999/08/18 05:20,    8.8,    9.4,   10.6,    9.3,    9.0,    8.4,    7.3,    6.5,  999.0,    6.9,    8.2,    8.6,    9.3,    9.7,  999.0,  999.0,  999.0,  999.0,  999.0,  999.0,  999.0,  999.0,  999.0,  999.0,  999.0,  999.0,  999.0,  999.0,  999.0,  999.0,  999.0,  999.0
1999/08/18 05:30,    9.9,   10.2,    9.7,    9.3,    9.0,    8.3,    7.2,  999.0,    7.3,    6.7,    7.9,    8.0,    8.0,    8.3,    9.1,  999.0,  999.0,  999.0,  999.0,  999.0,   11.2,  999.0,  999.0,  999.0,  999.0,  999.0,  999.0,  999.0,  999.0,  999.0,  999.0,  999.0
1999/08/18 05:40,    9.8,   11.3,   10.1,    9.3,    8.5,    8.6,    8.2,    7.5,    7.7,    8.1,    7.8,    7.7,    7.5,    8.7,    9.0,  999.0,  999.0,  999.0,  999.0,  999.0,  999.0,  999.0,  999.0,  999.0,  999.0,  999.0,  999.0,  999.0,  999.0,  999.0,  999.0,  999.0
1999/08/18 05:50,   11.2,   10.4,    9.9,    9.2,    8.8,    8.2,    7.7,    8.8,    8.3,    7.7,    7.6,    8.1,    8.2,    8.1,    8.4,    9.6,  999.0,  999.0,  999.0,  999.0,  999.0,  999.0,  999.0,  999.0,  999.0,  999.0,  999.0,  999.0,  999.0,  999.0,  999.0,  999.0
1999/08/18 06:00,  999.0,    9.1,    8.7,    9.2,    8.9,    8.5,    9.0,    8.1,    8.6,    8.6,    9.3,    9.7,    9.2,    8.9,    9.0,  999.0,  999.0,  999.0,  999.0,  999.0,  999.0,  999.0,  999.0,  999.0,  999.0,  999.0,  999.0,  999.0,  999.0,  999.0,  999.0,  999.0
1999/08/18 06:10,    9.0,    8.6,    9.1,   10.2,    9.2,    8.1,    8.0,    8.5,    8.3,    8.8,    8.7,    9.1,   10.0,    9.2,    9.8,  999.0,  999.0,  999.0,  999.0,  999.0,  999.0,  999.0,  999.0,  999.0,  999.0,   11.5,  999.0,  999.0,  999.0,  999.0,  999.0,  999.0
1999/08/18 06:20,    9.6,    8.2,    8.7,    9.6,    9.9,    9.2,    8.9,    8.8,    8.8,    8.7,    9.3,   10.1,   11.1,   10.4,   10.4,  999.0,  999.0,  999.0,  999.0,  999.0,  999.0,  999.0,  999.0,  999.0,  999.0,  999.0,  999.0,  999.0,  999.0,  999.0,  999.0,  999.0
1999/08/18 06:30,    9.0,    8.2,    8.8,    9.8,   10.2,    9.9,    9.6,    9.2,    9.0,    9.0,    9.7,   10.1,   10.3,   10.6,   11.0,  999.0,  999.0,  999.0,  999.0,  999.0,  999.0,  999.0,  999.0,  999.0,  999.0,  999.0,  999.0,  999.0,  999.0,  999.0,  999.0,  999.0
1999/08/18 06:40,    9.1,    8.7,    8.5,    8.9,    9.7,    9.7,    9.3,    9.2,    8.9,    9.1,    9.3,    9.9,    9.3,   10.4,  999.0,  999.0,  999.0,  999.0,  999.0,  999.0,  999.0,  999.0,  999.0,  999.0,  999.0,  999.0,  999.0,  999.0,  999.0,  999.0,  999.0,  999.0
1999/08/18 06:50,  999.0,  999.0,    8.7,    9.1,    8.8,    8.6,    8.1,    8.6,    9.1,    9.5,    9.2,    9.7,    9.4,    8.9,    9.8,  999.0,  999.0,  999.0,  999.0,  999.0,  999.0,  999.0,  999.0,  999.0,  999.0,  999.0,  999.0,  999.0,  999.0,  999.0,  999.0,  999.0
1999/08/18 07:00,    8.9,    8.6,    8.8,    8.1,    8.4,    8.0,    7.8,    8.0,    8.7,    9.2,    9.1,    9.0,    9.5,  999.0,    9.7,    9.5,  999.0,  999.0,   10.1,   11.2,  999.0,  999.0,  999.0,  999.0,  999.0,  999.0,  999.0,  999.0,  999.0,  999.0,  999.0,  999.0
1999/08/18 07:10,    9.2,    8.6,    8.7,    8.1,    8.0,    8.2,    8.0,    8.4,    8.8,    8.8,    8.9,    9.3,    8.9,  999.0,    8.7,    8.4,   10.2,    9.6,    9.8,  999.0,  999.0,  999.0,  999.0,  999.0,  999.0,  999.0,  999.0,  999.0,  999.0,  999.0,  999.0,  999.0
1999/08/18 07:20,    9.4,    9.5,    8.6,    8.3,  999.0,    8.2,    8.6,    8.6,    7.9,    7.7,    7.9,    8.0,    7.3,  999.0,    8.5,    7.0,    7.3,    8.4,    8.9,    9.8,  999.0,  999.0,  999.0,  999.0,  999.0,  999.0,  999.0,  999.0,   11.6,  999.0,  999.0,  999.0
1999/08/18 07:30,    8.7,    8.6,    8.9,    7.5,    7.7,    8.0,    7.8,    7.2,    6.7,    6.9,    6.4,    6.8,    7.1,    8.6,    8.5,    7.8,    8.5,    9.5,   10.3,   11.8,   11.4,  999.0,  999.0,  999.0,  999.0,  999.0,  999.0,  999.0,    9.6,  999.0,  999.0,  999.0
1999/08/18 07:40,  999.0,    8.6,    8.7,  999.0,    7.4,    7.8,    6.6,    6.0,    6.6,    7.7,    9.1,    9.6,    8.4,    7.7,    8.0,    8.3,    8.9,    9.1,   10.2,   10.6,    9.8,   10.4,   11.1,  999.0,  999.0,  999.0,  999.0,  999.0,  999.0,  999.0,  999.0,  999.0
1999/08/18 07:50,    9.7,    9.0,    8.5,    8.1,    9.1,    9.5,    8.2,    9.4,    8.6,    7.6,    7.9,    7.1,    8.9,    8.5,    7.8,    8.8,   10.4,   10.1,   10.9,    9.9,   10.4,   10.1,   10.5,  999.0,  999.0,  999.0,  999.0,  999.0,  999.0,  999.0,  999.0,  999.0
1999/08/18 08:00,    8.7,    9.8,   10.2,   10.9,    9.9,    9.0,    8.1,    7.7,    7.3,    8.0,    9.5,    8.9,    9.4,    9.6,    9.9,   10.5,   11.2,  999.0,  999.0,  999.0,  999.0,  999.0,   10.0,   10.0,   10.4,  999.0,  999.0,  999.0,  999.0,  999.0,  999.0,  999.0
1999/08/18 08:10,    7.9,    8.3,    8.9,    9.5,    8.5,    7.8,    8.4,    8.5,   10.4,   11.4,   11.2,   11.2,  999.0,  999.0,   10.0,   11.3,   12.5,   13.1,  999.0,  999.0,  999.0,  999.0,  999.0,    9.8,  999.0,  999.0,  999.0,  999.0,  999.0,  999.0,  999.0,  999.0
1999/08/18 08:20,    6.5,    7.9,    9.3,    9.5,    9.3,    7.6,    8.4,    9.3,   10.3,    9.4,    9.2,    9.6,   10.3,    9.5,   11.0,   11.1,   11.5,   11.7,   12.5,   12.8,   12.4,   11.3,  999.0,  999.0,  999.0,  999.0,  999.0,  999.0,    9.6,   10.5,  999.0,  999.0
1999/08/18 08:30,    6.8,    8.3,   10.1,    9.8,    9.7,    9.1,    8.9,    8.8,    9.0,    9.9,   10.9,   11.2,   10.9,   10.3,   11.2,   11.4,   12.2,   12.0,   12.1,   12.1,   11.3,   10.6,  999.0,  999.0,  999.0,  999.0,  999.0,  999.0,   11.3,   10.8,  999.0,  999.0
1999/08/18 08:40,    6.6,    7.1,    8.9,    8.9,    8.2,    7.3,    8.2,    8.7,    9.4,   10.1,   10.4,   10.2,   10.8,   10.6,   10.7,   11.4,   12.0,  999.0,  999.0,  999.0,  999.0,   10.5,   10.5,    9.7,  999.0,  999.0,  999.0,   10.1,  999.0,  999.0,  999.0,  999.0
1999/08/18 08:50,    7.0,    8.0,    8.5,    8.8,    7.5,    7.2,    7.0,    7.4,    8.2,    8.9,    8.9,    8.7,    9.2,    9.6,   10.1,    9.7,   10.4,   10.8,   10.1,  999.0,  999.0,  999.0,    9.7,    8.0,  999.0,  999.0,  999.0,   10.8,  999.0,  999.0,  999.0,  999.0
1999/08/18 09:00,    7.6,    9.0,    9.5,    8.7,    8.3,    7.5,    8.5,    9.6,   10.1,   10.3,    9.9,   10.3,   11.3,   11.9,   11.2,   12.2,   13.2,  999.0,  999.0,  999.0,  999.0,  999.0,  999.0,    8.7,  999.0,  999.0,  999.0,  999.0,  999.0,  999.0,  999.0,  999.0
1999/08/18 09:10,    6.5,    8.1,    8.8,    8.5,    8.3,    8.2,    8.8,    9.4,   10.3,   11.5,   10.6,    9.5,  999.0,   11.1,   11.0,   11.3,  999.0,  999.0,  999.0,  999.0,  999.0,  999.0,  999.0,  999.0,   10.0,  999.0,  999.0,  999.0,  999.0,  999.0,  999.0,  999.0
1999/08/18 09:20,    6.8,    7.9,    9.2,   10.0,    9.5,    9.1,    9.6,   10.3,   11.5,   11.3,   11.2,   11.5,   10.8,  999.0,   10.6,   11.2,  999.0,   12.0,  999.0,  999.0,  999.0,  999.0,  999.0,  999.0,  999.0,  999.0,  999.0,  999.0,  999.0,  999.0,  999.0,  999.0
1999/08/18 09:30,    7.5,    8.3,    8.2,    9.0,    8.7,    8.0,    8.3,   10.5,   11.3,   11.3,   10.4,   10.6,   10.8,   10.4,   10.3,   10.8,   10.2,  999.0,  999.0,  999.0,  999.0,  999.0,  999.0,  999.0,  999.0,  999.0,  999.0,  999.0,  999.0,  999.0,  999.0,  999.0
1999/08/18 09:40,    7.3,    8.4,    8.8,    8.4,    8.8,   10.8,   11.3,   11.6,   11.7,   11.3,   10.2,   10.1,   10.0,   10.1,   11.5,  999.0,   12.8,  999.0,  999.0,  999.0,  999.0,  999.0,  999.0,  999.0,  999.0,  999.0,  999.0,  999.0,  999.0,  999.0,  999.0,  999.0
1999/08/18 09:50,    7.3,    9.1,    9.2,    7.8,    8.6,   11.2,   12.0,   11.9,   11.9,   12.1,   11.2,   10.9,   10.8,   11.5,   12.0,   13.6,   13.6,  999.0,  999.0,  999.0,  999.0,  999.0,  999.0,  999.0,  999.0,  999.0,  999.0,  999.0,  999.0,  999.0,  999.0,  999.0
1999/08/18 10:00,    6.2,    7.5,   10.3,   10.3,   10.4,   11.4,   12.1,   11.9,   11.7,   11.1,   11.0,   11.8,   10.3,   11.6,   12.5,  999.0,  999.0,   13.0,  999.0,  999.0,  999.0,  999.0,  999.0,  999.0,  999.0,  999.0,  999.0,  999.0,  999.0,  999.0,  999.0,  999.0
1999/08/18 10:10,    7.9,    8.2,    9.3,    9.1,    9.7,    9.9,   10.4,   10.6,   10.0,    9.4,    9.8,   10.5,    9.5,   10.3,   10.5,   11.6,  999.0,  999.0,  999.0,  999.0,  999.0,   12.8,  999.0,  999.0,  999.0,  999.0,  999.0,  999.0,  999.0,  999.0,  999.0,  999.0
1999/08/18 10:20,    5.1,    7.0,    7.9,    9.7,   10.0,    8.6,    8.8,    8.4,    8.8,    9.5,    9.7,   10.3,    9.8,   10.2,   11.0,  999.0,  999.0,  999.0,  999.0,  999.0,  999.0,  999.0,  999.0,  999.0,  999.0,  999.0,  999.0,  999.0,  999.0,  999.0,  999.0,  999.0
1999/08/18 10:30,    7.3,    8.7,    9.5,  999.0,   11.0,   10.7,   10.1,   10.5,   11.2,   11.2,   11.3,  999.0,  999.0,   10.6,   11.2,   11.6,   11.0,  999.0,  999.0,  999.0,  999.0,  999.0,  999.0,  999.0,  999.0,  999.0,  999.0,  999.0,  999.0,  999.0,  999.0,  999.0
1999/08/18 10:40,    7.3,    7.0,    9.5,    8.3,    9.5,   10.3,    9.8,   10.2,   10.5,   11.6,   12.4,   11.4,   11.1,   10.6,   10.8,   11.3,  999.0,  999.0,  999.0,  999.0,  999.0,  999.0,  999.0,  999.0,  999.0,  999.0,  999.0,  999.0,  999.0,  999.0,  999.0,  999.0
1999/08/18 10:50,    7.3,    7.6,    9.2,   10.1,   10.1,    9.7,    9.4,    9.2,   10.2,   10.9,   11.8,   10.9,  999.0,    9.8,   10.0,    9.9,  999.0,  999.0,  999.0,  999.0,  999.0,  999.0,  999.0,  999.0,  999.0,  999.0,  999.0,  999.0,  999.0,  999.0,  999.0,  999.0
1999/08/18 11:00,    6.5,    7.6,    8.6,   10.1,   10.5,    8.7,    8.6,    8.7,    8.9,    9.8,   11.2,   10.5,   10.6,   11.7,   10.4,   10.7,    9.1,   10.7,  999.0,  999.0,  999.0,  999.0,  999.0,  999.0,  999.0,  999.0,  999.0,  999.0,  999.0,  999.0,  999.0,  999.0
1999/08/18 11:10,    5.8,    7.1,    8.4,    8.2,    8.1,    8.3,    9.3,    9.9,   10.6,   10.0,   11.6,   11.6,   11.3,   11.6,   11.0,    9.8,    9.6,  999.0,   10.6,  999.0,  999.0,  999.0,  999.0,   13.7,  999.0,  999.0,  999.0,  999.0,  999.0,  999.0,  999.0,  999.0
1999/08/18 11:20,    6.6,    7.1,    8.5,    8.8,    9.6,    8.6,    8.8,    9.8,    9.8,   10.2,   12.7,   12.7,   12.3,   10.7,   10.2,    9.3,    9.7,    9.4,  999.0,  999.0,   10.1,   10.8,   10.8,   13.2,  999.0,  999.0,  999.0,  999.0,  999.0,  999.0,  999.0,  999.0
1999/08/18 11:30,    6.6,    8.3,    9.2,    8.9,    9.2,    8.7,    8.7,    9.5,   10.6,   10.9,   11.0,   12.0,   11.4,   10.5,    9.3,    8.7,    9.9,    9.3,  999.0,  999.0,   10.6,   10.8,  999.0,  999.0,  999.0,  999.0,  999.0,  999.0,  999.0,  999.0,  999.0,  999.0
1999/08/18 11:40,    3.5,    3.8,    8.9,    9.1,    7.6,    2.9,    5.6,    9.8,    8.3,    7.1,    7.8,    9.6,    9.5,    9.3,    9.4,    8.9,    9.4,   11.2,  999.0,  999.0,   11.0,   10.6,   11.5,  999.0,  999.0,  999.0,  999.0,  999.0,  999.0,  999.0,  999.0,  999.0
1999/08/18 11:50,    9.6,    7.5,    9.9,   10.8,    9.8,   10.6,   10.0,   12.6,    9.6,    8.7,   11.1,   11.9,   12.1,   13.0,   12.2,   11.1,   11.4,   11.7,  999.0,   12.3,   11.2,   12.9,   11.0,  999.0,  999.0,  999.0,  999.0,  999.0,  999.0,  999.0,  999.0,  999.0
1999/08/18 12:00,    5.4,    6.1,    6.2,    7.5,    9.2,    7.6,    9.0,    5.3,    6.3,    7.9,    8.8,    9.6,   11.1,   12.6,   11.4,   10.6,   11.1,   11.5,   11.4,   12.1,  999.0,  999.0,  999.0,  999.0,   13.9,   13.5,  999.0,  999.0,  999.0,  999.0,  999.0,  999.0
1999/08/18 12:10,    6.3,    6.9,    7.9,    8.0,    9.8,   10.1,    8.8,    7.8,    8.8,    9.4,    8.3,   10.9,   11.3,   11.2,   10.7,    9.9,    9.6,   11.1,   10.3,   10.8,    9.8,  999.0,  999.0,  999.0,  999.0,   10.5,  999.0,  999.0,  999.0,  999.0,  999.0,  999.0
1999/08/18 12:20,    7.2,    8.9,    9.2,    8.9,   10.1,    9.6,    9.0,    9.1,    9.8,   12.1,   13.3,   13.7,   14.7,   13.2,   12.3,   11.7,   12.2,   11.1,   11.1,  999.0,  999.0,  999.0,  999.0,  999.0,  999.0,  999.0,  999.0,  999.0,  999.0,  999.0,  999.0,  999.0
1999/08/18 12:30,    5.1,    6.3,    7.5,    7.1,    8.6,    9.2,    9.1,   10.2,   10.1,   10.4,   10.2,    9.8,   12.0,   12.1,  999.0,   11.5,  999.0,   11.9,   11.0,   11.5,  999.0,  999.0,  999.0,  999.0,  999.0,  999.0,  999.0,  999.0,  999.0,  999.0,  999.0,  999.0
1999/08/18 12:40,    6.1,    6.9,    7.1,    7.5,    8.1,    8.9,   10.2,   11.2,   11.6,   10.7,  999.0,  999.0,   12.3,  999.0,  999.0,   11.7,   12.9,   13.3,  999.0,   12.4,  999.0,  999.0,  999.0,  999.0,  999.0,  999.0,  999.0,  999.0,  999.0,  999.0,  999.0,  999.0
1999/08/18 12:50,    4.5,    6.5,    7.1,    8.1,    8.6,   11.0,   10.8,   11.9,   11.4,   10.8,   10.8,   10.3,   11.9,   11.9,   10.9,  999.0,  999.0,   11.3,    9.2,   10.1,  999.0,  999.0,  999.0,  999.0,  999.0,  999.0,  999.0,  999.0,  999.0,  999.0,  999.0,  999.0
1999/08/18 13:00,    5.6,    6.6,    7.1,    8.3,    8.8,   10.2,   11.0,   10.4,   10.9,   13.1,   12.8,  999.0,   10.4,   11.9,  999.0,  999.0,  999.0,  999.0,   11.2,  999.0,  999.0,  999.0,  999.0,  999.0,  999.0,  999.0,  999.0,  999.0,  999.0,  999.0,  999.0,  999.0
1999/08/18 13:10,    5.3,    5.9,    7.3,    8.4,    9.0,   10.5,   10.4,   11.7,   11.9,   11.6,   11.3,   12.2,   12.9,   13.3,  999.0,  999.0,  999.0,   12.3,   12.4,  999.0,  999.0,  999.0,  999.0,  999.0,  999.0,  999.0,  999.0,  999.0,  999.0,  999.0,  999.0,  999.0
1999/08/18 13:20,    6.5,    7.2,    7.4,    7.8,    8.6,   10.4,   11.4,   12.7,   12.0,   11.5,   11.6,   12.3,   12.9,   13.2,  999.0,  999.0,   11.6,   11.0,  999.0,  999.0,  999.0,  999.0,  999.0,  999.0,  999.0,  999.0,  999.0,  999.0,  999.0,  999.0,  999.0,  999.0
1999/08/18 13:30,    6.1,    6.4,    8.2,    6.1,    6.2,   10.9,   14.1,    9.6,   10.3,   10.1,   11.5,    9.6,   12.2,   12.2,  999.0,  999.0,  999.0,   10.9,  999.0,  999.0,  999.0,  999.0,  999.0,  999.0,  999.0,  999.0,  999.0,  999.0,  999.0,  999.0,  999.0,  999.0
1999/08/18 13:40,    6.0,    7.1,    8.3,    8.7,    9.9,   11.4,   11.2,   11.8,   11.2,   11.6,   12.5,   14.3,   14.1,  999.0,  999.0,  999.0,  999.0,   10.8,  999.0,  999.0,  999.0,  999.0,  999.0,  999.0,  999.0,  999.0,  999.0,  999.0,  999.0,  999.0,  999.0,  999.0
1999/08/18 13:50,    7.3,    7.7,    8.4,    8.9,    9.7,   11.8,   12.3,   10.8,    9.8,    9.7,  999.0,  999.0,   14.1,  999.0,  999.0,  999.0,  999.0,  999.0,  999.0,  999.0,  999.0,  999.0,  999.0,  999.0,  999.0,  999.0,  999.0,  999.0,  999.0,  999.0,  999.0,  999.0
1999/08/18 14:00,    6.6,    7.9,    8.3,    8.6,   10.2,   10.8,   11.0,   10.2,    9.5,    9.6,   10.8,  999.0,   12.2,   13.2,  999.0,  999.0,  999.0,  999.0,  999.0,  999.0,  999.0,  999.0,  999.0,  999.0,  999.0,  999.0,  999.0,  999.0,  999.0,  999.0,  999.0,  999.0
1999/08/18 14:10,    7.2,    7.9,    8.4,    9.1,   10.2,   11.1,   10.6,   10.5,    9.4,   10.9,   11.6,   12.1,   11.8,  999.0,  999.0,  999.0,  999.0,  999.0,  999.0,  999.0,  999.0,  999.0,  999.0,  999.0,  999.0,  999.0,  999.0,  999.0,  999.0,  999.0,  999.0,  999.0
1999/08/18 14:20,    7.3,    7.9,    8.6,    9.5,   10.6,   11.4,   11.5,   10.7,    9.9,   10.7,   11.5,   12.9,   13.0,  999.0,  999.0,  999.0,  999.0,   12.4,  999.0,  999.0,  999.0,  999.0,  999.0,  999.0,  999.0,  999.0,  999.0,  999.0,  999.0,  999.0,  999.0,  999.0
1999/08/18 14:30,    6.3,    7.6,    8.3,    9.6,   11.3,   12.0,   10.8,    9.7,   10.0,   11.5,   12.4,   13.9,   13.5,  999.0,  999.0,  999.0,   12.8,   13.0,  999.0,  999.0,  999.0,  999.0,  999.0,  999.0,  999.0,  999.0,  999.0,  999.0,  999.0,  999.0,  999.0,  999.0
1999/08/18 14:40,    7.2,    7.8,    8.6,    9.9,   11.0,   11.4,   11.0,   11.8,   12.0,   12.2,   12.4,   12.5,   12.1,  999.0,  999.0,  999.0,   12.5,   12.7,  999.0,  999.0,  999.0,  999.0,  999.0,  999.0,  999.0,  999.0,  999.0,  999.0,  999.0,  999.0,  999.0,  999.0
1999/08/18 14:50,    7.4,    8.1,    8.7,   10.1,   11.3,   11.0,   11.6,   13.1,   12.8,   12.4,   11.5,   11.6,   11.4,   11.0,  999.0,  999.0,   12.8,   12.4,   13.2,  999.0,  999.0,  999.0,  999.0,  999.0,  999.0,  999.0,  999.0,  999.0,  999.0,  999.0,  999.0,  999.0
1999/08/18 15:00,    7.3,    7.5,    8.3,    9.6,   10.3,   11.1,   12.4,   13.2,   13.6,   12.6,   11.9,   11.2,   11.9,  999.0,   10.7,   11.7,   12.3,   12.3,  999.0,  999.0,  999.0,  999.0,  999.0,  999.0,  999.0,  999.0,  999.0,  999.0,  999.0,  999.0,  999.0,  999.0
1999/08/18 15:10,    6.2,    7.1,    8.2,    9.5,   10.4,   11.4,   12.5,   12.6,   13.5,   12.2,   11.8,   11.8,   12.5,   12.4,  999.0,  999.0,  999.0,   10.7,  999.0,  999.0,  999.0,  999.0,  999.0,  999.0,  999.0,  999.0,  999.0,  999.0,  999.0,  999.0,  999.0,  999.0
1999/08/18 15:20,    7.1,    7.8,    8.1,    9.7,   10.9,   12.6,   13.4,  999.0,  999.0,  999.0,   11.8,   12.6,   12.9,   12.6,  999.0,  999.0,  999.0,  999.0,  999.0,  999.0,  999.0,  999.0,  999.0,  999.0,  999.0,  999.0,  999.0,  999.0,  999.0,  999.0,  999.0,  999.0
1999/08/18 15:30,    6.7,    7.3,    7.3,    8.9,    9.5,   11.5,   12.5,  999.0,   12.5,   11.5,   11.2,   11.2,   11.7,   11.9,  999.0,  999.0,  999.0,  999.0,  999.0,  999.0,  999.0,  999.0,  999.0,  999.0,  999.0,  999.0,  999.0,  999.0,  999.0,  999.0,  999.0,  999.0
1999/08/18 15:40,    6.2,    7.3,    7.0,    9.5,   11.6,   11.9,  999.0,   12.9,   12.4,   12.3,   12.1,   11.6,   12.3,  999.0,  999.0,  999.0,  999.0,  999.0,  999.0,  999.0,  999.0,  999.0,  999.0,  999.0,  999.0,  999.0,  999.0,  999.0,  999.0,  999.0,  999.0,  999.0
1999/08/18 15:50,    6.6,    7.5,    7.7,    9.3,   10.3,   11.6,  999.0,  999.0,   12.2,   12.2,   10.4,   11.8,   11.9,   12.0,  999.0,  999.0,  999.0,  999.0,  999.0,  999.0,  999.0,  999.0,  999.0,  999.0,  999.0,  999.0,  999.0,  999.0,  999.0,  999.0,  999.0,  999.0
1999/08/18 16:00,    7.8,    8.0,    8.1,  999.0,    9.7,  999.0,  999.0,   12.0,   11.7,   11.1,   11.7,   12.1,   11.7,   12.1,  999.0,  999.0,  999.0,  999.0,  999.0,  999.0,  999.0,  999.0,  999.0,  999.0,  999.0,  999.0,  999.0,  999.0,  999.0,  999.0,  999.0,  999.0
1999/08/18 16:10,    8.5,    8.9,   10.0,    9.3,   10.2,   12.8,   11.9,   13.3,   13.4,   12.7,   11.7,   12.2,   13.8,  999.0,  999.0,  999.0,  999.0,  999.0,  999.0,  999.0,  999.0,  999.0,  999.0,  999.0,  999.0,  999.0,  999.0,  999.0,  999.0,  999.0,  999.0,  999.0
1999/08/18 16:20,    8.0,    8.9,    9.6,    9.1,   10.7,   12.0,   12.8,   13.2,   12.9,   12.9,   12.4,   12.1,   13.1,  999.0,  999.0,  999.0,  999.0,  999.0,  999.0,  999.0,  999.0,  999.0,  999.0,  999.0,  999.0,  999.0,  999.0,  999.0,  999.0,  999.0,  999.0,  999.0
1999/08/18 16:30,    7.9,    8.7,    9.6,    8.3,    9.5,   11.2,   12.7,   12.9,   13.3,   13.5,   14.0,   13.7,   13.7,   14.3,  999.0,  999.0,  999.0,  999.0,  999.0,  999.0,  999.0,  999.0,  999.0,  999.0,  999.0,  999.0,  999.0,  999.0,  999.0,  999.0,  999.0,  999.0
1999/08/18 16:40,    8.1,    8.8,    9.4,    9.1,   10.6,   12.7,   13.1,   12.8,   12.3,   12.1,   12.5,   13.1,   13.8,   13.6,  999.0,   12.7,   13.2,  999.0,  999.0,  999.0,  999.0,  999.0,  999.0,  999.0,  999.0,  999.0,  999.0,  999.0,  999.0,  999.0,  999.0,  999.0
1999/08/18 16:50,    7.6,    8.6,    8.7,    8.5,    9.3,   11.6,   12.6,   12.5,   11.7,   11.1,   11.8,   12.5,   11.9,   12.1,  999.0,  999.0,  999.0,   10.5,  999.0,  999.0,  999.0,  999.0,  999.0,  999.0,  999.0,  999.0,  999.0,  999.0,  999.0,  999.0,  999.0,  999.0
1999/08/18 17:00,    7.8,    9.1,    9.8,    9.0,    9.2,   10.9,   12.0,   12.3,   12.1,   11.3,   11.0,   11.5,   11.9,   11.4,   10.1,   10.4,  999.0,  999.0,   11.5,  999.0,  999.0,  999.0,   10.1,  999.0,  999.0,  999.0,  999.0,  999.0,  999.0,  999.0,  999.0,  999.0
1999/08/18 17:10,    8.2,    9.1,    9.7,    8.7,    9.3,   11.2,   12.2,   12.8,   11.6,  999.0,   11.1,   10.5,   11.2,   10.8,   11.4,  999.0,  999.0,  999.0,  999.0,  999.0,  999.0,  999.0,  999.0,  999.0,  999.0,  999.0,  999.0,  999.0,  999.0,  999.0,  999.0,  999.0
1999/08/18 17:20,    8.2,    8.3,    9.7,    9.4,   10.8,   12.4,   12.3,   11.9,   11.9,   11.1,   11.2,   12.4,   12.7,   12.0,  999.0,  999.0,  999.0,  999.0,  999.0,  999.0,  999.0,  999.0,  999.0,  999.0,  999.0,  999.0,  999.0,  999.0,  999.0,  999.0,  999.0,  999.0
1999/08/18 17:30,    8.7,    9.4,    8.3,    9.1,   11.1,   11.6,   11.3,   11.0,   11.0,   11.9,   12.3,   12.5,   12.5,   12.3,  999.0,  999.0,  999.0,  999.0,   12.0,  999.0,   11.0,  999.0,  999.0,  999.0,  999.0,  999.0,  999.0,  999.0,  999.0,  999.0,  999.0,  999.0
1999/08/18 17:40,    9.4,    9.6,    8.6,    9.6,   10.7,   10.8,   10.1,   10.4,   10.7,   11.8,   12.6,   12.5,   12.1,   11.2,   11.2,   10.9,  999.0,   11.9,   12.7,   10.4,   10.3,  999.0,  999.0,  999.0,  999.0,  999.0,  999.0,  999.0,  999.0,  999.0,  999.0,  999.0
1999/08/18 17:50,    9.8,   10.3,    9.2,    9.8,    9.4,   10.4,   10.8,   11.3,   11.0,   10.5,   10.1,    9.8,    9.2,    9.3,    8.9,    9.6,   10.7,   10.6,  999.0,   11.3,   10.9,  999.0,  999.0,  999.0,  999.0,  999.0,  999.0,  999.0,  999.0,  999.0,  999.0,  999.0
1999/08/18 18:00,    9.1,    9.8,    9.6,    9.6,   10.4,   11.0,   11.0,   10.4,   10.0,   10.1,   10.6,   10.1,    9.1,    9.6,    8.0,    9.5,   11.2,   11.8,   12.0,   10.9,  999.0,  999.0,   10.4,  999.0,  999.0,  999.0,  999.0,  999.0,  999.0,  999.0,  999.0,  999.0
1999/08/18 18:10,    9.0,   11.0,    9.1,   10.0,    9.8,    9.9,   10.9,   10.4,    9.8,    8.9,    8.7,    8.5,    7.9,    7.5,    8.1,    9.8,    9.8,   10.7,   11.0,   10.9,   10.8,   11.3,   11.9,  999.0,  999.0,  999.0,  999.0,  999.0,  999.0,  999.0,  999.0,  999.0
1999/08/18 18:20,    9.8,    8.6,    8.2,    8.0,    8.8,   10.7,   11.0,   11.8,   11.4,   10.0,   10.0,   10.2,    9.8,    9.2,    9.3,   10.5,   11.6,   10.7,   10.3,   10.2,   10.8,   11.0,   12.4,  999.0,  999.0,  999.0,  999.0,  999.0,  999.0,  999.0,  999.0,  999.0
1999/08/18 18:30,    9.4,    8.2,    7.7,    8.0,    9.2,    9.9,   11.0,   11.2,   11.5,   11.7,   12.5,   11.6,   11.7,   11.7,   12.1,  999.0,   12.2,   12.4,   12.0,   12.3,   12.5,   12.9,   13.9,  999.0,  999.0,  999.0,  999.0,  999.0,  999.0,  999.0,  999.0,  999.0
1999/08/18 18:40,    9.1,    7.6,    7.8,    8.2,    9.2,   10.8,   11.0,   11.5,   12.2,   12.1,   11.2,   12.7,   11.7,   13.1,  999.0,  999.0,  999.0,  999.0,   12.5,   11.8,   12.1,   12.3,   13.1,  999.0,  999.0,  999.0,  999.0,  999.0,  999.0,  999.0,  999.0,  999.0
1999/08/18 18:50,    8.9,    6.9,    6.8,    6.7,    8.5,   10.4,  999.0,   10.7,   11.4,   12.1,   11.7,   11.8,   12.2,   11.8,   12.5,   12.4,   12.0,   11.2,   10.7,   11.6,  999.0,   12.5,   13.3,  999.0,  999.0,  999.0,  999.0,  999.0,  999.0,  999.0,  999.0,  999.0
1999/08/18 19:00,    8.7,    7.4,    7.4,    6.7,    8.4,   10.1,   11.5,   11.3,   11.6,   11.8,   11.9,   11.9,   11.8,   12.1,   12.2,   11.9,   12.2,   12.1,  999.0,  999.0,  999.0,   12.4,  999.0,  999.0,  999.0,  999.0,  999.0,  999.0,  999.0,  999.0,  999.0,  999.0
1999/08/18 19:10,    8.4,    8.5,    8.6,    9.3,    9.6,    9.6,   11.0,   10.9,   11.1,   10.2,    9.7,   10.3,   10.5,   10.8,   10.7,   10.5,   10.4,   11.2,   11.0,   11.4,   11.6,   12.3,   12.3,  999.0,  999.0,  999.0,  999.0,  999.0,  999.0,  999.0,   11.5,  999.0
1999/08/18 19:20,    8.3,    9.4,    9.6,   10.5,    9.6,    9.6,    9.0,    9.2,   10.5,   11.2,    9.9,   10.3,   10.7,   10.2,    9.1,    9.6,   11.0,   11.1,   11.1,   10.6,   11.3,   10.2,   11.6,  999.0,  999.0,  999.0,  999.0,  999.0,  999.0,  999.0,  999.0,  999.0
1999/08/18 19:30,   11.4,    9.3,    9.6,   10.6,   11.3,   11.0,    9.8,   10.4,   11.5,   12.7,   11.2,   10.4,   10.4,   10.0,    9.9,   10.4,   10.3,   10.3,   11.6,   11.5,   12.6,   13.3,  999.0,  999.0,  999.0,  999.0,  999.0,  999.0,  999.0,  999.0,  999.0,  999.0
1999/08/18 19:40,    9.9,   10.1,    9.9,   10.6,   10.4,   10.8,    9.4,   11.9,   11.9,   11.3,   10.6,   10.4,   11.1,   10.6,    9.3,    9.4,    9.5,    9.1,    9.5,   10.1,   10.7,  999.0,  999.0,  999.0,  999.0,  999.0,  999.0,  999.0,  999.0,  999.0,  999.0,  999.0
1999/08/18 19:50,   10.8,   10.9,   12.3,   12.2,   10.5,   12.3,   12.3,   10.7,   11.8,   10.7,   10.8,   11.0,  999.0,  999.0,  999.0,  999.0,    9.5,    9.9,    9.8,   10.5,  999.0,  999.0,  999.0,  999.0,  999.0,  999.0,  999.0,  999.0,  999.0,  999.0,  999.0,  999.0
1999/08/18 20:00,    7.2,   11.6,    8.6,    5.9,    8.8,    9.3,    9.5,    9.6,   11.3,  999.0,  999.0,   15.9,   15.9,   11.1,   10.8,    7.1,    8.8,   10.6,   10.9,   10.3,    8.8,   10.2,  999.0,  999.0,  999.0,    8.7,  999.0,  999.0,  999.0,   12.6,  999.0,  999.0
1999/08/18 20:10,   11.2,   10.9,   11.6,   11.9,  999.0,   12.8,   10.2,  999.0,   10.5,   11.7,  999.0,   11.5,   14.6,   13.6,   14.7,   13.4,   12.6,   10.4,    8.2,    8.6,    9.5,    9.3,   10.3,  999.0,    9.9,  999.0,  999.0,   12.9,   13.7,   11.1,  999.0,  999.0
1999/08/18 20:20,   10.7,   10.4,    8.9,   10.4,    8.9,    8.4,   10.3,   11.4,   12.6,   11.4,   11.2,  999.0,   10.7,  999.0,   11.4,   12.4,   11.1,    9.5,    9.7,    8.9,  999.0,  999.0,  999.0,    9.0,    8.7,    9.6,   10.2,   11.8,  999.0,  999.0,  999.0,  999.0
1999/08/18 20:30,   10.7,   11.8,   12.3,   11.2,   10.8,   11.9,   11.8,   11.8,   11.7,   12.2,   11.7,   10.6,   10.7,   10.8,   10.7,   11.2,   11.3,   10.6,   10.2,   10.3,   10.2,   11.1,   10.1,   11.6,  999.0,   10.6,   11.7,   13.7,  999.0,  999.0,  999.0,  999.0
1999/08/18 20:40,   11.2,   12.3,   12.3,   11.6,   12.3,   12.0,   12.3,   12.4,   12.8,   12.7,   13.1,   12.5,   12.4,   12.8,   12.8,   12.7,   12.2,   11.8,   11.8,   12.5,   13.0,   13.3,   13.6,   12.7,  999.0,  999.0,  999.0,  999.0,  999.0,  999.0,  999.0,  999.0
1999/08/18 20:50,   12.5,   11.0,   10.8,   11.2,   11.8,   12.7,   12.5,   12.7,   12.3,   12.6,   12.3,   12.5,   12.2,  999.0,   13.1,   13.2,   12.9,   12.3,   11.8,  999.0,   12.0,   11.5,   12.3,   13.0,   11.7,  999.0,  999.0,  999.0,  999.0,  999.0,  999.0,  999.0
1999/08/18 21:00,   10.5,   10.2,   10.5,   11.7,   12.5,   12.7,   12.4,   12.8,   12.9,   12.5,  999.0,   13.8,   13.4,   12.9,  999.0,   13.5,   13.6,   11.9,   10.6,   10.8,   11.5,   11.2,   11.3,   11.7,   11.9,   13.2,  999.0,  999.0,  999.0,  999.0,  999.0,  999.0
1999/08/18 21:10,   10.8,   11.5,   12.4,   12.1,   11.4,   11.4,   12.0,   12.5,   11.7,   12.7,   11.7,   12.7,   12.7,   12.6,   12.5,   13.1,   13.6,   13.6,   11.9,   12.8,   12.8,   13.0,   13.1,   13.7,  999.0,  999.0,  999.0,  999.0,  999.0,  999.0,  999.0,  999.0
1999/08/18 21:20,   11.2,   12.4,   13.5,   14.5,  999.0,   13.1,   11.9,  999.0,  999.0,   12.2,   12.2,   12.0,   11.2,  999.0,  999.0,  999.0,  999.0,   11.6,   11.2,   11.0,   11.9,  999.0,   11.8,   12.7,  999.0,   14.9,   14.1,  999.0,  999.0,  999.0,  999.0,  999.0
1999/08/18 21:30,   10.9,   11.1,   10.3,   12.6,   12.5,   11.5,   13.9,  999.0,   12.3,   12.3,   11.9,   11.7,   12.0,   12.4,   12.3,   12.6,   13.1,   12.7,   13.5,   13.4,   12.9,   11.9,   12.9,  999.0,   13.5,  999.0,  999.0,   14.0,  999.0,  999.0,  999.0,  999.0
1999/08/18 21:40,   10.6,   12.7,   12.2,   12.2,   12.3,   12.7,   11.9,   12.1,   12.0,   11.1,   11.0,   10.5,    9.8,   10.6,   10.9,  999.0,   11.0,   11.4,   12.1,   11.3,   12.1,   12.8,   13.2,  999.0,  999.0,  999.0,  999.0,  999.0,  999.0,  999.0,  999.0,  999.0
1999/08/18 21:50,   11.1,  999.0,  999.0,   12.9,   13.0,  999.0,  999.0,  999.0,  999.0,  999.0,    7.8,   10.8,  999.0,  999.0,  999.0,   10.5,   11.6,   12.5,   13.8,  999.0,   13.8,  999.0,  999.0,  999.0,  999.0,  999.0,  999.0,  999.0,  999.0,  999.0,  999.0,  999.0
1999/08/18 22:00,    7.8,   12.7,   12.9,   13.7,  999.0,   17.4,   13.2,  999.0,    9.9,    9.6,    9.6,    9.9,    8.2,    9.2,    8.9,   10.4,   10.4,   11.1,   11.2,  999.0,  999.0,  999.0,  999.0,  999.0,   14.0,  999.0,  999.0,  999.0,  999.0,  999.0,  999.0,  999.0
1999/08/18 22:10,   11.0,   12.4,   14.0,   14.8,   14.9,   14.5,   13.6,   11.4,   10.6,   10.4,    9.5,    9.7,    9.8,    9.9,    8.6,    9.9,   10.1,   11.4,   10.2,   10.5,   11.0,   11.2,  999.0,  999.0,  999.0,  999.0,  999.0,  999.0,  999.0,  999.0,  999.0,  999.0
1999/08/18 22:20,   10.5,   12.4,   13.4,   13.9,   14.1,   13.9,   13.4,   12.0,   11.3,   11.0,    8.5,    8.3,    8.8,    9.1,    8.3,    8.2,    9.1,  999.0,   11.2,   10.4,   11.0,   11.9,   12.0,  999.0,   14.1,  999.0,  999.0,  999.0,  999.0,  999.0,  999.0,  999.0
1999/08/18 22:30,   11.0,   12.6,   13.5,   12.9,   13.2,   13.4,   13.9,   13.1,  999.0,   10.7,  999.0,    8.0,    8.3,    8.7,    8.6,    9.0,    9.0,    8.4,  999.0,    9.2,    9.3,  999.0,    9.2,  999.0,  999.0,  999.0,  999.0,  999.0,  999.0,  999.0,  999.0,  999.0
1999/08/18 22:40,   12.1,   12.6,   13.2,   13.4,   12.8,   13.1,   12.9,   13.1,   12.2,    9.7,    8.2,    6.9,    7.1,    7.2,    7.7,    7.6,    8.6,    9.4,   11.0,   11.6,  999.0,   11.3,   11.1,  999.0,  999.0,   11.7,  999.0,  999.0,  999.0,  999.0,  999.0,  999.0
1999/08/18 22:50,   11.0,   13.8,   14.5,   13.2,   13.0,   12.5,   12.5,   11.5,  999.0,    9.6,    8.7,    8.2,    7.1,    7.2,    6.8,    5.7,    6.9,    8.4,    9.3,   10.3,    9.3,   10.3,   11.5,   12.2,   11.6,  999.0,  999.0,  999.0,  999.0,  999.0,  999.0,  999.0
1999/08/18 23:00,   11.9,   14.3,   14.1,   14.4,   14.2,   13.4,   12.7,   12.0,   11.4,   10.4,    8.4,    7.3,    6.8,    7.0,    5.8,    6.5,    7.0,    8.3,    9.6,   10.4,   11.4,   13.8,   13.0,   13.1,   12.7,   12.6,   13.4,   14.7,  999.0,  999.0,  999.0,  999.0
1999/08/18 23:10,   12.4,   13.9,   14.6,   15.1,   14.9,   14.2,   13.1,   12.4,   11.4,   10.9,    9.6,  999.0,    7.3,    6.5,    6.1,    5.6,    6.7,    9.0,    9.5,    9.8,   11.3,   11.0,   12.5,   13.2,   13.3,   14.3,  999.0,  999.0,  999.0,  999.0,  999.0,  999.0
1999/08/18 23:20,   12.5,   13.5,   14.6,   15.0,   14.0,   13.3,   11.4,   11.9,   11.0,   11.2,    9.4,   10.4,    9.6,    8.9,    9.4,   10.3,    9.6,    9.8,    9.9,   11.3,   11.1,   13.2,   13.0,   13.0,   13.6,   12.5,  999.0,  999.0,  999.0,  999.0,  999.0,  999.0
1999/08/18 23:30,   12.4,   12.4,   14.2,   14.4,   14.2,   13.1,   11.7,   10.9,   10.4,   11.3,   11.0,    9.6,    9.4,   10.9,    9.2,   10.3,    6.7,    8.0,    8.5,   10.7,   13.6,    7.0,   10.2,   11.9,   10.7,   10.8,   10.9,   10.5,   11.0,  999.0,   13.6,   17.5
1999/08/18 23:40,   13.4,   14.9,   15.6,   14.8,   13.9,   13.2,   11.8,   11.1,   10.5,   10.0,    9.2,    8.7,    9.9,    7.3,  999.0,    7.9,    8.8,    9.8,    9.9,    9.6,    9.0,    8.0,   10.0,  999.0,  999.0,  999.0,  999.0,  999.0,  999.0,  999.0,  999.0,  999.0
1999/08/18 23:50,   14.1,   14.3,   13.3,   12.3,   11.1,    9.9,   11.0,   11.0,   11.0,   11.1,   12.0,   10.2,   10.6,   10.5,   10.9,   12.7,   12.0,   10.8,    9.8,    8.1,    5.8,    6.8,    6.7,    7.5,    9.2,   10.0,    9.8,   12.6,   16.8,   11.4,   14.0,   15.2
